Temp
18 18 18 18 18 18 20 20 21 21 21 21 21 21 21 20 21 19 23 27 28 28 28 29 31 31 32 33 35 37 34 34 36 37 39 39 39 39 37 33 36 36 33 31 31
18 18 18 18 18 18 20 21 21 21 21 21 21 21 20 19 17 23 26 28 28 28 28 30 33 34 33 33 34 35 34 35 37 39 39 38 39 38 36 36 35 33 32 32 30
18 18 18 18 18 19 21 21 20 21 21 21 21 20 20 18 23 30 27 27 28 28 28 31 33 35 34 34 34 35 34 36 37 39 40 38 37 32 36 35 35 32 31 31 31
18 18 18 18 18 19 20 21 21 21 21 21 20 20 20 17 29 29 28 28 27 27 28 30 33 33 34 34 35 34 36 36 36 38 39 39 36 26 23 34 29 33 32 31 31
18 18 18 18 18 19 20 21 20 20 21 20 20 19 18 25 29 28 28 28 27 26 28 31 33 33 33 35 36 35 36 37 37 38 38 39 38 31 29 28 25 27 31 31 32
18 18 18 18 18 19 19 21 21 20 20 20 19 18 19 26 32 31 30 27 29 28 30 32 34 35 34 35 35 36 35 36 37 37 38 37 37 37 25 22 26 31 31 32 32
18 18 18 18 18 19 20 21 21 20 20 20 19 17 23 28 31 31 30 31 32 31 32 34 35 35 35 34 36 36 34 35 36 36 37 38 36 36 30 27 32 32 32 32 32
18 18 18 18 18 19 20 21 20 20 20 19 19 18 26 31 31 31 31 32 32 32 32 33 34 34 34 35 35 34 34 32 34 36 37 36 34 37 35 33 32 32 32 32 32
18 19 19 18 18 19 20 20 20 19 19 19 18 21 29 30 31 32 32 32 32 32 32 32 32 32 33 33 33 34 32 33 34 36 36 35 34 35 36 33 31 31 32 32 31
19 19 19 19 19 20 20 20 18 19 19 18 21 25 29 32 33 32 32 32 33 33 32 32 32 31 31 30 30 33 34 35 35 36 37 35 34 35 36 33 31 30 30 30 30
19 19 19 19 20 20 21 19 23 23 23 29 31 31 33 33 32 33 33 33 33 33 31 33 31 31 32 32 32 32 32 33 35 37 35 34 34 35 34 33 32 30 29 28 28
20 20 20 20 20 21 20 25 29 30 28 32 33 33 32 32 32 34 33 32 32 31 33 33 32 34 35 35 34 34 33 33 34 35 35 36 35 36 33 33 33 32 30 28 27
20 20 20 20 20 22 24 29 29 29 29 32 34 33 33 33 33 34 34 33 32 32 33 32 34 35 35 34 34 33 33 33 33 34 35 35 34 35 35 34 34 25 23 22 28
20 20 20 21 20 26 29 29 29 28 28 32 33 33 34 34 33 34 35 33 33 32 33 33 35 34 34 34 33 32 34 34 33 33 32 35 32 34 35 34 33 27 26 22 26
20 20 21 21 20 28 29 29 28 29 25 32 33 34 35 34 34 33 34 34 32 32 33 32 33 34 33 33 34 33 34 34 33 33 33 33 32 33 36 35 35 34 33 33 31
22 22 22 22 20 27 29 29 28 27 24 31 33 32 33 33 33 33 34 34 33 31 32 32 34 34 33 34 34 34 33 33 33 32 31 32 32 33 34 35 36 37 35 34 33
23 23 23 22 28 29 29 30 28 27 32 30 30 32 32 31 31 32 31 31 29 28 28 30 32 32 30 30 31 31 31 29 29 30 30 33 32 33 35 36 36 36 37 35 34
23 23 23 25 27 29 28 28 28 30 29 30 30 31 31 31 30 30 30 30 28 28 27 27 27 30 30 29 26 26 27 26 24 25 25 30 29 32 34 35 33 35 36 36 34
23 23 23 29 29 29 29 29 27 28 28 28 30 29 30 30 30 29 29 29 28 27 24 25 25 28 29 29 29 27 26 28 27 27 26 28 29 32 26 24 30 30 31 33 30
21 27 30 30 30 30 30 27 28 28 28 28 27 28 27 28 27 28 28 27 26 27 26 25 23 26 28 28 29 29 30 28 25 22 22 27 27 19 17 19 18 21 29 26 25
21 29 30 30 31 31 29 29 29 28 27 27 26 26 27 26 27 27 28 27 26 26 26 25 24 24 26 26 26 27 27 27 25 22 19 20 21 17 15 16 15 16 20 24 23
27 29 30 30 30 31 28 28 21 27 27 27 27 26 25 25 25 26 26 26 26 25 24 24 22 22 23 26 27 27 26 26 22 22 22 20 20 17 16 16 15 16 17 21 23
28 31 30 30 29 29 28 27 27 26 26 26 25 25 26 25 24 25 25 27 26 25 22 22 21 20 22 25 26 24 25 25 24 24 22 21 21 19 18 15 15 14 16 15 21
29 30 30 30 29 27 27 27 27 26 26 26 25 26 25 24 25 24 25 26 25 24 20 21 21 21 20 21 23 23 20 22 22 20 20 22 21 21 20 18 19 16 15 15 16
30 28 27 27 28 27 27 27 27 26 26 25 25 25 24 23 24 24 24 24 24 21 23 23 20 21 22 22 22 20 18 17 19 16 17 18 17 17 18 18 19 18 16 14 13
27 27 29 27 26 27 21 26 25 26 25 25 24 24 24 23 23 22 22 22 22 23 22 22 20 20 20 23 21 16 18 17 17 18 17 19 16 16 18 18 17 15 14 14 12
25 27 27 23 27 26 26 26 25 25 25 25 24 24 24 23 23 23 23 23 22 21 21 21 20 19 19 21 22 16 15 16 16 16 16 15 14 16 16 15 15 14 14 12 12
Height
807 804 802 800 797 794 792 790 788 787 785 783 782 780 778 774 770 769 763 756 756 753 755 754 751 752 752 748 741 736 758 759 743 729 714 700 706 693 702 728 727 724 732 741 755
805 802 800 798 795 792 790 788 787 785 783 782 780 778 776 772 768 761 751 752 752 753 754 752 745 744 747 747 742 745 755 746 721 705 708 710 701 700 709 716 725 731 732 743 756
804 801 799 797 794 791 789 787 785 784 782 780 778 777 775 772 764 741 744 746 749 751 752 749 742 736 744 739 741 739 748 731 718 703 697 704 709 731 716 724 718 737 739 745 756
802 800 798 796 793 790 787 786 784 782 780 778 777 775 773 773 763 742 743 745 747 748 752 749 742 743 743 745 734 745 727 727 721 705 703 702 706 733 751 722 723 732 745 744 753
801 798 796 795 792 788 785 783 781 780 778 777 776 775 772 765 749 742 743 744 745 748 749 745 742 741 745 735 730 736 728 718 715 708 704 696 705 727 738 727 729 749 747 743 750
799 797 795 793 790 786 784 781 780 779 777 776 775 774 774 766 741 742 743 743 744 747 745 740 735 730 734 731 732 723 726 722 712 710 704 708 706 706 736 734 727 735 735 745 748
798 796 794 792 788 784 782 780 779 777 776 775 775 775 769 751 740 741 742 740 739 742 739 734 729 729 726 734 719 720 736 724 718 715 711 703 715 715 721 735 720 727 736 743 746
796 793 792 789 786 783 780 778 777 775 775 774 774 776 760 739 740 740 739 738 738 738 738 734 732 730 732 722 722 730 732 750 725 713 708 714 734 707 706 717 729 734 739 742 743
794 791 789 787 783 781 778 776 775 774 773 774 774 772 750 739 737 735 737 735 736 737 737 738 738 738 734 742 744 728 750 742 731 708 710 719 729 709 699 711 725 731 736 736 741
791 789 787 784 781 779 776 774 772 772 771 774 771 771 745 735 731 734 733 734 733 733 736 738 740 748 747 754 768 742 733 722 721 705 700 717 721 711 697 708 718 725 734 737 740
788 786 784 782 780 778 775 773 773 772 766 750 740 740 730 730 732 731 732 733 731 733 747 732 747 753 739 734 736 736 735 734 712 691 703 713 714 706 704 710 717 725 735 740 742
786 784 782 781 779 777 775 770 760 760 758 738 733 730 731 732 733 726 731 738 736 746 730 735 746 724 716 716 721 723 729 732 717 703 705 702 706 697 699 707 710 714 725 737 745
784 782 781 779 777 775 772 764 762 759 760 737 728 729 730 732 727 724 726 730 737 739 732 737 724 707 714 720 724 726 733 730 729 710 700 707 713 703 694 696 699 717 734 739 736
782 781 780 779 779 769 764 763 762 761 772 744 733 729 727 722 731 721 719 726 729 736 726 727 710 714 717 721 722 738 714 716 720 727 742 705 737 708 700 698 698 713 722 728 731
781 780 779 779 774 768 764 763 764 762 805 742 734 723 720 727 726 727 719 721 736 733 729 732 721 717 723 722 712 725 707 713 715 722 722 720 732 710 688 692 685 685 687 695 704
781 780 778 778 775 767 764 763 764 781 811 755 734 738 733 728 730 726 721 715 720 735 724 724 707 711 715 705 704 702 711 712 714 721 736 722 720 713 698 685 674 664 667 673 682
782 780 778 776 768 765 764 761 779 786 743 759 757 745 743 744 746 735 740 741 749 763 756 737 726 716 726 731 719 720 728 745 745 737 734 701 711 701 681 668 664 662 655 658 667
782 780 776 770 767 764 763 768 785 763 769 756 754 747 752 745 749 751 751 752 752 759 768 768 766 737 737 743 760 755 752 764 784 769 755 714 727 709 674 661 669 658 651 649 662
782 777 773 765 762 763 762 775 786 780 773 772 760 763 759 751 756 758 758 756 756 764 788 783 774 750 742 738 742 749 760 734 742 739 752 732 713 697 704 710 688 685 679 670 673
782 775 766 764 760 758 763 781 777 776 776 773 780 772 782 772 775 770 763 763 772 771 773 780 786 764 750 741 737 738 726 745 754 784 777 738 734 775 769 756 748 734 707 704 701
782 770 762 761 758 755 771 773 773 773 778 783 786 786 782 784 779 776 769 772 774 778 777 777 781 779 763 759 755 749 748 743 753 771 795 788 772 788 794 782 780 768 747 723 733
777 773 762 761 763 756 776 776 787 779 778 781 781 786 790 788 787 782 782 777 774 779 789 783 791 792 778 753 742 742 747 749 775 781 778 789 783 790 788 787 782 777 767 747 728
774 760 762 761 773 770 776 780 784 785 788 788 789 788 786 792 797 783 782 773 776 782 794 795 797 801 782 763 746 759 757 754 755 757 770 776 770 768 772 783 784 788 776 769 745
774 770 763 763 768 777 781 784 785 785 787 787 790 786 790 792 784 788 785 777 779 784 793 794 797 797 803 787 773 772 776 768 770 780 776 760 761 762 766 775 769 778 775 770 762
771 779 781 783 779 782 782 785 784 789 784 787 787 788 793 801 794 790 786 786 782 789 784 787 800 791 785 779 773 785 797 795 792 797 791 779 790 783 775 776 765 771 776 779 778
785 783 775 783 786 784 796 788 790 788 792 788 796 791 791 796 795 802 796 795 796 788 789 790 804 796 793 772 775 808 799 801 799 789 791 780 791 788 780 780 782 783 774 783 791
792 786 784 790 782 786 786 787 789 790 786 788 792 794 793 792 792 791 790 790 791 795 794 796 799 800 799 780 773 801 805 800 799 796 799 797 804 792 791 794 793 790 783 792 797
Wind_Speed
17 18 18 19 19 18 17 16 16 16 16 16 16 16 17 19 22 14 14 13 9 22 22 15 15 17 19 18 19 19 15 16 22 23 6 3 8 9 18 24 11 4 17 28 33
17 18 19 19 19 18 17 16 16 15 15 15 15 16 17 19 19 25 23 27 22 13 11 15 13 14 13 17 16 17 15 22 23 24 8 6 6 11 8 14 14 19 26 34 31
17 18 19 20 20 18 16 15 15 15 14 14 14 15 16 16 12 5 5 10 15 16 15 19 19 14 16 14 18 20 19 19 24 26 17 7 8 11 13 11 17 21 24 24 27
18 18 19 20 19 17 15 14 13 13 12 13 13 13 14 7 5 6 7 6 5 8 14 17 16 16 16 16 17 21 22 19 26 29 27 16 6 12 29 11 24 18 20 23 22
18 18 18 19 19 16 14 13 12 12 11 11 10 10 7 8 13 5 4 7 9 8 16 16 15 16 17 16 15 19 20 20 21 25 26 13 15 18 27 17 26 10 19 21 19
18 18 18 19 19 17 14 12 12 11 11 10 8 8 6 13 6 1 4 5 7 11 16 20 15 15 16 17 16 15 15 21 20 24 20 18 17 19 2 14 20 24 21 19 20
18 18 18 19 19 17 14 12 12 11 10 8 7 6 11 18 6 3 6 8 9 11 16 18 17 15 12 16 15 17 17 19 18 21 20 16 23 18 24 27 22 20 19 19 18
18 17 18 18 18 17 14 13 13 11 9 7 6 5 8 4 7 8 10 8 6 9 11 15 12 12 16 18 18 11 16 16 18 20 18 15 22 18 18 20 21 19 20 20 18
17 17 17 18 18 17 15 14 13 11 9 6 6 8 8 1 7 9 11 11 7 8 8 8 7 12 15 16 15 16 13 19 20 20 20 19 20 16 16 19 19 18 18 18 18
17 16 16 16 17 16 15 15 12 8 6 7 13 9 9 11 3 4 7 12 4 7 9 9 7 9 9 10 13 18 16 12 15 20 21 18 20 18 22 19 20 19 17 16 18
14 13 14 14 14 14 16 6 4 5 10 13 5 11 11 6 2 9 7 9 10 8 11 14 11 12 16 18 17 17 20 18 20 14 20 20 20 19 17 18 20 21 20 19 18
11 11 12 12 12 12 13 6 10 11 9 20 5 10 3 4 6 7 5 8 10 11 15 12 14 15 16 17 18 20 18 16 13 19 17 13 20 18 21 21 21 22 24 22 19
9 9 10 11 11 12 12 11 10 12 6 14 3 5 5 9 6 9 8 10 13 15 14 14 17 17 10 14 12 14 15 16 18 18 19 17 20 16 17 23 22 5 6 8 17
8 8 9 8 8 13 14 6 12 7 5 9 1 5 8 7 5 2 3 8 15 17 15 12 17 15 16 13 14 16 18 19 19 17 14 18 15 17 18 19 22 22 26 30 36
6 6 6 6 13 10 8 10 10 5 1 6 7 1 7 4 9 6 4 8 14 16 16 18 18 19 10 15 15 17 18 18 18 18 20 20 14 18 16 22 24 28 27 29 26
5 4 4 6 9 13 12 10 6 5 1 7 7 10 8 6 9 8 20 8 9 17 15 18 19 18 20 18 15 18 17 17 15 17 16 20 19 17 18 19 19 21 27 25 26
3 2 5 9 9 13 12 8 4 4 7 10 13 12 12 6 12 13 11 15 9 10 14 21 17 8 18 24 23 21 15 12 15 15 15 20 20 17 21 21 20 21 15 25 24
6 11 11 16 11 12 9 8 8 12 12 14 12 15 14 3 4 11 15 12 11 12 12 13 16 19 12 13 12 21 17 10 8 14 18 24 15 13 14 6 18 17 0 12 22
18 16 8 8 8 5 7 4 7 9 11 12 15 10 11 16 14 13 13 10 13 16 12 12 16 28 25 23 19 19 14 21 18 19 16 15 22 21 31 35 21 18 18 9 14
10 15 8 7 9 12 8 5 4 7 11 10 9 9 12 13 11 11 11 15 12 15 15 15 22 18 21 23 18 17 18 17 6 8 11 12 11 10 26 28 31 34 15 22 21
6 5 8 7 12 10 4 7 6 9 8 8 9 8 10 10 12 12 6 12 11 11 15 16 12 17 20 17 22 18 16 18 2 3 3 8 3 12 17 21 22 28 30 14 12
9 6 10 11 8 2 8 5 3 5 8 5 5 8 7 11 8 11 9 11 13 13 15 12 8 12 21 21 20 16 14 11 7 12 9 10 9 9 13 20 18 23 26 25 15
5 3 7 13 5 6 3 7 4 6 6 5 4 5 6 8 6 10 9 8 9 14 9 9 7 11 16 16 21 19 17 17 14 9 16 12 8 6 12 11 14 18 26 20 7
6 5 3 3 5 8 2 1 2 3 0 4 4 4 6 9 10 6 12 8 13 8 4 2 7 14 13 19 19 20 22 22 14 9 16 17 14 18 14 13 10 9 15 16 4
3 4 3 5 7 4 5 2 4 1 3 1 4 2 7 6 12 10 13 13 13 7 6 2 11 15 17 20 18 15 12 15 18 4 7 13 15 15 15 14 14 12 13 12 14
5 5 1 3 3 8 3 1 5 2 2 1 3 7 9 8 6 11 13 11 6 11 9 8 8 14 18 20 7 10 8 8 11 14 15 14 12 13 10 12 15 13 10 8 14
16 5 5 3 5 6 3 3 4 4 5 4 5 8 9 10 10 11 10 9 8 7 6 5 6 9 13 17 19 5 10 12 10 10 11 8 7 13 11 13 15 16 12 15 9
Wind_Direction
329 331 330 326 321 315 311 310 309 306 306 307 308 309 309 309 302 287 255 247 226 245 269 269 224 223 234 249 250 251 252 257 263 269 248 134 239 161 115 145 170 159 148 149 146
325 328 329 326 324 319 316 311 305 302 304 307 312 312 313 314 306 273 259 248 262 262 259 245 227 218 228 235 247 236 247 249 260 268 347 325 258 152 158 145 137 88 117 138 149
320 322 325 327 323 321 312 307 302 302 307 311 313 314 315 322 283 183 218 212 230 255 242 255 263 231 230 231 239 239 242 256 262 269 302 168 232 16 202 174 151 127 134 144 154
318 319 322 324 324 317 309 304 305 310 311 309 311 313 311 305 307 121 144 167 228 224 238 242 252 258 239 240 232 252 242 241 265 281 293 261 141 86 293 82 63 132 148 150 163
314 315 318 320 322 317 310 309 308 303 302 306 308 314 328 244 258 112 191 240 236 212 228 236 241 239 252 245 250 241 259 250 254 269 275 292 283 178 210 106 127 198 166 159 165
313 313 314 317 320 317 308 304 299 298 303 302 309 316 258 269 291 169 170 173 199 208 232 241 238 241 258 259 254 252 255 273 257 263 268 270 267 264 119 70 160 167 161 168 169
308 311 313 313 318 311 304 301 295 296 296 301 304 308 266 251 309 263 225 229 224 208 241 243 255 263 273 267 272 257 266 260 264 259 259 262 261 253 154 179 139 159 166 170 167
305 308 307 309 312 308 307 301 295 294 291 290 284 278 262 327 263 236 239 250 228 224 275 304 288 278 277 277 285 245 241 255 263 243 243 246 258 236 161 147 157 170 179 172 166
300 304 304 304 308 310 308 304 299 291 279 271 276 214 276 196 226 222 225 241 199 243 246 265 290 276 266 251 257 245 242 239 244 259 223 230 251 265 220 168 162 176 187 173 153
297 301 300 302 309 313 308 305 291 278 272 242 261 265 263 251 72 317 228 246 208 229 235 229 226 237 232 266 257 258 229 253 236 231 217 222 223 238 254 179 173 176 186 187 174
299 300 297 304 311 313 312 302 215 201 228 249 242 237 296 252 217 235 195 216 239 237 254 211 227 240 237 216 240 263 279 295 305 298 181 211 231 222 171 188 196 179 186 191 189
300 298 300 304 306 302 306 263 26 333 302 224 251 238 327 271 263 193 182 234 225 251 246 245 227 244 252 257 251 254 269 276 294 298 302 262 225 227 179 196 208 196 181 188 183
303 300 300 304 302 282 241 308 322 324 271 242 155 68 99 194 275 144 175 225 267 261 264 271 279 292 273 281 281 274 276 283 276 277 279 275 273 273 197 197 210 117 342 327 194
314 307 303 304 296 268 239 337 335 355 270 150 212 87 177 237 212 353 296 260 274 283 284 305 301 274 288 264 265 266 271 255 259 259 264 267 264 233 241 226 199 196 199 184 206
318 305 289 255 309 290 350 324 337 267 150 288 73 197 210 310 335 131 257 267 272 284 293 298 303 300 245 270 280 271 265 272 277 277 277 248 267 276 261 230 219 211 202 194 177
321 301 274 277 258 259 316 323 289 243 305 353 40 345 336 26 350 343 329 226 338 345 293 276 282 299 301 308 279 297 297 285 270 271 256 261 254 255 259 263 254 229 199 198 182
357 311 251 280 286 326 322 295 229 277 313 31 355 336 320 32 330 334 349 319 12 342 326 320 290 328 352 336 343 335 319 279 267 241 245 239 243 254 260 261 261 271 243 198 190
321 300 276 263 280 315 311 270 281 12 27 347 335 297 292 35 344 350 317 324 48 2 340 339 319 356 358 346 310 329 324 300 288 308 305 311 295 297 297 6 16 346 129 179 193
300 299 255 308 275 288 285 286 27 9 351 344 315 1 342 351 2 336 329 328 45 30 8 322 317 324 321 333 321 302 280 288 299 299 295 285 293 289 10 2 9 4 348 355 132
306 288 253 315 302 285 275 77 79 19 342 345 343 356 331 352 348 326 324 47 17 18 360 325 308 314 314 323 302 285 306 302 5 298 295 272 261 28 4 1 354 350 357 47 97
286 244 43 330 302 264 339 60 80 63 1 355 352 340 350 355 332 330 341 83 35 357 347 325 324 319 314 313 322 320 311 311 273 242 296 307 52 13 10 10 355 336 335 93 110
277 282 19 341 279 10 39 16 327 21 8 4 358 331 6 332 331 308 347 360 23 345 334 11 308 305 315 300 282 283 326 350 335 289 270 265 275 52 27 2 360 342 334 326 125
271 338 37 334 298 104 124 99 48 11 27 355 10 356 344 311 311 343 333 335 359 341 30 352 332 312 326 322 337 343 327 308 321 269 262 282 285 97 41 24 353 333 323 335 272
283 297 122 67 40 339 109 130 160 104 122 333 326 318 331 328 301 306 297 359 350 58 170 116 276 310 312 314 316 323 358 352 330 314 308 292 340 354 1 339 342 341 336 333 11
273 54 5 343 46 10 327 338 290 73 179 184 221 347 333 316 312 307 350 337 321 148 313 360 314 317 321 307 325 19 5 2 331 8 310 332 332 7 12 352 348 343 11 43 71
338 347 37 107 336 291 151 72 324 15 280 14 292 329 305 284 353 319 321 320 310 349 323 15 316 331 311 305 263 87 39 348 345 11 354 345 18 10 9 18 13 0 58 114 103
355 325 279 160 194 250 59 25 345 319 179 278 325 307 304 9 332 305 293 277 270 280 333 310 319 315 305 332 312 50 348 1 348 358 338 1 12 357 18 15 16 11 104 126 117